Location: Coupvray
(48.8929°N, 2.7967°E)
Time: 16:25:19
(UTC+00:00)

Envisat - Visible Passes

Search period start: 30 September 2020 00:00
Search period end: 10 October 2020 00:00
Orbit: 764 x 766 km, 98.1° (Epoch: 29 September)

Date Brightness Start Highest point End Pass type
(mag) Time Alt. Az. Time Alt. Az. Time Alt. Az.
30 Sep 6.2 18:23:28 10° SW 18:26:37 16° W 18:29:48 10° NW visible
01 Oct 6.0 04:47:37 10° NE 04:51:18 20° E 04:54:58 10° SE visible
03 Oct 5.2 05:12:26 10° NNE 05:17:00 32° E 05:21:31 10° SSE visible
03 Oct 6.1 18:11:24 10° SW 18:15:07 20° W 18:18:52 10° NW visible
04 Oct 6.2 04:36:42 10° NE 04:39:48 16° E 04:42:53 10° SE visible
05 Oct 6.5 18:38:58 10° WSW 18:40:54 12° W 18:42:52 10° WNW visible
06 Oct 5.6 05:01:17 10° NE 05:05:32 26° E 05:09:46 10° SSE visible
06 Oct 5.7 17:59:30 10° SSW 18:03:38 25° W 18:07:48 10° NW visible
07 Oct 6.4 04:26:01 10° ENE 04:28:17 13° E 04:30:31 10° ESE visible
08 Oct 4.6 05:26:19 10° NNE 05:31:10 42° E 05:35:59 10° S visible
08 Oct 6.3 18:26:28 10° WSW 18:29:22 15° W 18:32:18 10° NW visible
09 Oct 5.9 04:50:12 10° NE 04:54:04 21° E 04:57:53 10° SE visible
09 Oct 5.3 17:47:43 10° SSW 17:52:10 30° W 17:56:39 10° NNW visible
